FW4751 Weather Reports


time (UTC)temp
C
wind
direction
speed
KPH
gust
KPH
rain 1hr
cm
rain 24hr
cm
rain mn
cm
humidity
%
barometer
mb
20260902204509 26 225 4.8 12.9 0.00 0.00 0.00 55 1017.2
20260902204004 25 225 3.2 12.9 0.00 0.00 0.00 56 1017.1
20260902203505 25 225 3.2 9.7 0.00 0.00 0.00 56 1017.2
20260902203009 25 225 3.2 6.4 0.00 0.00 0.00 56 1017.3
20260902202504 25 225 4.8 11.3 0.00 0.00 0.00 57 1017.3
20260902202003 25 315 1.6 6.4 0.00 0.00 0.00 56 1017.3
20260902201508 25 315 3.2 8.0 0.00 0.00 0.00 55 1017.3
20260902201003 25 225 3.2 9.7 0.00 0.00 0.00 53 1017.2
20260902200503 26 225 1.6 6.4 0.00 0.00 0.00 54 1017.2
20260902200008 26 225 3.2 8.0 0.00 0.00 0.00 53 1017.5
20260902195508 26 315 3.2 6.4 0.00 0.00 0.00 53 1017.6
20260902195008 26 315 3.2 9.7 0.00 0.00 0.00 52 1017.8
20260902194503 26 270 3.2 12.9 0.00 0.00 0.00 51 1017.8
20260902194024 26 225 3.2 12.9 0.00 0.00 0.00 51 1017.8
20260902193508 26 225 3.2 9.7 0.00 0.00 0.00 50 1017.6
20260902193008 26 270 1.6 8.0 0.00 0.00 0.00 51 1017.7
20260902192529 25 248 3.2 9.7 0.00 0.00 0.00 52 1017.8
20260902192006 25 225 3.2 6.4 0.00 0.00 0.00 54 1017.7
20260902191509 25 248 3.2 8.0 0.00 0.00 0.00 54 1017.7
20260902191029 25 225 4.8 11.3 0.00 0.00 0.00 55 1017.7
20260902190508 25 225 3.2 9.7 0.00 0.00 0.00 53 1017.6
20260902190009 25 270 1.6 6.4 0.00 0.00 0.00 54 1017.8
20260902185528 25 225 3.2 6.4 0.00 0.00 0.00 54 1017.6
20260902185008 25 225 1.6 8.0 0.00 0.00 0.00 53 1017.7
20260902184508 26 225 3.2 8.0 0.00 0.00 0.00 52 1017.7
20260902184008 25 225 3.2 8.0 0.00 0.00 0.00 54 1017.7
20260902183543 25 270 3.2 9.7 0.00 0.00 0.00 55 1017.7
20260902183006 25 225 3.2 8.0 0.00 0.00 0.00 54 1017.8
20260902182503 25 225 3.2 9.7 0.00 0.00 0.00 55 1017.7
20260902182004 25 225 3.2 8.0 0.00 0.00 0.00 55 1017.7
20260902181508 25 225 1.6 6.4 0.00 0.00 0.00 55 1017.9
20260902181008 25 225 1.6 6.4 0.00 0.00 0.00 55 1017.7
20260902180508 25 270 1.6 6.4 0.00 0.00 0.00 55 1017.7
20260902180005 25 225 3.2 8.0 0.00 0.00 0.00 56 1017.7
20260902175508 24 315 1.6 4.8 0.00 0.00 0.00 57 1017.6
20260902175003 24 315 1.6 3.2 0.00 0.00 0.00 56 1017.7
20260902174508 25 338 1.6 6.4 0.00 0.00 0.00 55 1017.6
20260902174008 25 158 1.6 6.4 0.00 0.00 0.00 54 1017.7
20260902173528 25 203 1.6 4.8 0.00 0.00 0.00 55 1017.6
20260902173028 25 180 3.2 11.3 0.00 0.00 0.00 54 1017.6
20260902172508 25 0 3.2 11.3 0.00 0.00 0.00 55 1017.5
20260902172008 25 203 1.6 8.0 0.00 0.00 0.00 55 1017.6
20260902171503 25 113 3.2 8.0 0.00 0.00 0.00 55 1017.5
20260902171008 24 135 1.6 4.8 0.00 0.00 0.00 55 1017.6
20260902170508 24 158 3.2 8.0 0.00 0.00 0.00 56 1017.5
20260902170008 23 180 1.6 4.8 0.00 0.00 0.00 58 1017.6
20260902165508 23 135 1.6 4.8 0.00 0.00 0.00 59 1017.6
20260902165008 23 158 1.6 4.8 0.00 0.00 0.00 59 1017.6
20260902164503 22 135 1.6 4.8 0.00 0.00 0.00 61 1017.6
20260902164003 22 270 1.6 4.8 0.00 0.00 0.00 61 1017.6
20260902163508 22 135 1.6 3.2 0.00 0.00 0.00 63 1017.5
20260902163008 21 135 1.6 4.8 0.00 0.00 0.00 64 1017.3
20260902162508 20 135 1.6 6.4 0.00 0.00 0.00 65 1017.4
20260902162008 20 135 1.6 4.8 0.00 0.00 0.00 66 1017.5
20260902161508 20 113 1.6 6.4 0.00 0.00 0.00 68 1017.5
20260902161003 19 180 1.6 4.8 0.00 0.00 0.00 69 1017.5
20260902160510 18 180 1.6 3.2 0.00 0.00 0.00 71 1017.6
20260902160007 18 180 1.6 4.8 0.00 0.00 0.00 72 1017.6
20260902155505 17 135 1.6 3.2 0.00 0.00 0.00 73 1017.8
20260902155030 17 180 1.6 3.2 0.00 0.00 0.00 75 1017.8
20260902154510 17 180 1.6 3.2 0.00 0.00 0.00 75 1017.7
20260902154008 16 203 1.6 3.2 0.00 0.00 0.00 75 1017.7
20260902153525 16 203 1.6 4.8 0.00 0.00 0.00 76 1017.6
20260902153005 16 203 1.6 3.2 0.00 0.00 0.00 77 1017.6
20260902152510 16 158 1.6 3.2 0.00 0.00 0.00 78 1017.6
20260902152010 15 270 1.6 3.2 0.00 0.00 0.00 78 1017.6
20260902151510 15 135 1.6 3.2 0.00 0.00 0.00 78 1017.5
20260902151025 15 0.0 3.2 0.00 0.00 0.00 78 1017.4
20260902150530 15 0.0 1.6 0.00 0.00 0.00 78 1017.4
20260902150010 15 0.0 1.6 0.00 0.00 0.00 78 1017.3
20260902145510 15 0.0 3.2 0.00 0.00 0.00 78 1017.2
20260902145009 15 0.0 1.6 0.00 0.00 0.00 78 1017.1
20260902144505 15 0.0 1.6 0.00 0.00 0.00 78 1017.1
20260902144005 15 0.0 1.6 0.00 0.00 0.00 78 1017.2
20260902143510 15 0.0 1.6 0.00 0.00 0.00 78 1017.5
20260902143005 15 0.0 1.6 0.00 0.00 0.00 78 1017.3
20260902142510 15 0.0 1.6 0.00 0.00 0.00 78 1017.3
20260902142010 15 0.0 3.2 0.00 0.00 0.00 78 1017.2
20260902141510 15 0.0 3.2 0.00 0.00 0.00 78 1017.2
20260902141010 15 0.0 3.2 0.00 0.00 0.00 78 1017.1
20260902140509 15 0.0 1.6 0.00 0.00 0.00 78 1017.1
20260902140029 15 0.0 1.6 0.00 0.00 0.00 78 1017.0
20260902135504 15 0.0 1.6 0.00 0.00 0.00 78 1017.0
20260902135030 15 0.0 1.6 0.00 0.00 0.00 78 1016.9
20260902134504 15 0.0 1.6 0.00 0.00 0.00 78 1016.9
20260902133504 15 0.0 1.6 0.00 0.00 0.00 78 1016.8
20260902133006 15 0.0 3.2 0.00 0.00 0.00 78 1016.6
20260902132510 15 0.0 1.6 0.00 0.00 0.00 78 1016.8
20260902132004 15 0.0 3.2 0.00 0.00 0.00 78 1016.8
20260902131510 15 0.0 1.6 0.00 0.00 0.00 78 1016.9
20260902131004 15 0.0 1.6 0.00 0.00 0.00 78 1016.9
20260902130505 15 0.0 1.6 0.00 0.00 0.00 78 1016.9
20260902130029 15 0.0 1.6 0.00 0.00 0.00 78 1016.7
20260902125505 14 158 1.6 3.2 0.00 0.00 0.00 79 1016.8
20260902125009 14 180 1.6 3.2 0.00 0.00 0.00 79 1016.8
20260902124605 14 0.0 3.2 0.00 0.00 0.00 79 1016.8
20260902124004 14 0.0 3.2 0.00 0.00 0.00 79 1016.9
20260902123509 14 0.0 3.2 0.00 0.00 0.00 80 1016.9
20260902123005 14 203 1.6 3.2 0.00 0.00 0.00 80 1017.0
20260902122509 14 135 1.6 3.2 0.00 0.00 0.00 80 1016.8
20260902122005 14 0.0 3.2 0.00 0.00 0.00 80 1016.9
20260902121509 14 0.0 1.6 0.00 0.00 0.00 80 1016.7
20260902121029 13 0.0 1.6 0.00 0.00 0.00 80 1016.7
20260902120510 13 0.0 1.6 0.00 0.00 0.00 80 1016.7
20260902120044 13 0.0 3.2 0.00 0.00 0.00 80 1016.7
20260902115509 13 0.0 3.2 0.00 0.00 0.00 81 1016.6
20260902115009 13 0.0 3.2 0.00 0.00 0.00 81 1016.7
20260902114504 13 0.0 1.6 0.00 0.00 0.00 81 1016.6
20260902114004 13 0.0 1.6 0.00 0.00 0.00 82 1016.7
20260902113504 13 158 1.6 4.8 0.00 0.00 0.00 82 1016.6
20260902113004 13 135 1.6 3.2 0.00 0.00 0.00 82 1016.8
20260902112509 13 0.0 3.2 0.00 0.00 0.00 83 1016.9
20260902112030 13 158 1.6 3.2 0.00 0.00 0.00 83 1016.9
20260902111510 13 135 1.6 4.8 0.00 0.00 0.00 83 1017.0
20260902111029 13 180 1.6 3.2 0.00 0.00 0.00 83 1017.1
20260902110509 13 135 1.6 3.2 0.00 0.00 0.00 83 1017.0
20260902110007 13 135 1.6 3.2 0.00 0.00 0.00 83 1017.1
20260902105504 13 0.0 1.6 0.00 0.00 0.00 83 1017.2
20260902105004 13 0.0 1.6 0.00 0.00 0.00 83 1017.2
20260902104504 13 0.0 1.6 0.00 0.00 0.00 83 1017.2
20260902104010 13 0.0 1.6 0.00 0.00 0.00 83 1017.2
20260902103509 13 0.0 1.6 0.00 0.00 0.00 83 1017.2
20260902103010 13 0.0 1.6 0.00 0.00 0.00 83 1017.0
20260902102524 13 0.0 1.6 0.00 0.00 0.00 83 1017.1
20260902102009 13 0.0 1.6 0.00 0.00 0.00 83 1017.0
20260902101504 13 0.0 1.6 0.00 0.00 0.00 83 1016.9
20260902101005 13 0.0 1.6 0.00 0.00 0.00 83 1016.9
20260902100504 13 0.0 0.0 0.00 0.00 0.00 83 1016.9
20260902100024 13 0.0 1.6 0.00 0.00 0.00 83 1017.0
20260902095504 13 0.0 1.6 0.00 0.00 0.00 83 1017.0
20260902095004 13 0.0 1.6 0.00 0.00 0.00 83 1017.0
20260902094504 13 0.0 1.6 0.00 0.00 0.00 83 1017.1
20260902094025 13 0.0 0.0 0.00 0.00 0.00 83 1017.1
20260902093529 13 0.0 1.6 0.00 0.00 0.00 83 1017.0
20260902093024 13 0.0 1.6 0.00 0.00 0.00 83 1017.0
20260902092504 13 0.0 1.6 0.00 0.00 0.00 83 1016.9
20260902092024 13 0.0 0.0 0.00 0.00 0.00 83 1017.0
20260902091509 13 0.0 1.6 0.00 0.00 0.00 83 1017.0
20260902091009 13 0.0 1.6 0.00 0.00 0.00 83 1017.0
20260902090509 13 0.0 1.6 0.00 0.00 0.00 83 1017.0
20260902090005 13 0.0 1.6 0.00 0.00 0.00 83 1017.0
20260902085504 13 0.0 1.6 0.00 0.00 0.00 83 1016.9
20260902085004 13 0.0 1.6 0.00 0.00 0.00 82 1017.0
20260902084504 13 0.0 1.6 0.00 0.00 0.00 82 1017.1
20260902084004 13 0.0 1.6 0.00 0.00 0.00 82 1017.2
20260902083504 13 0.0 1.6 0.00 0.00 0.00 82 1017.1
20260902083024 13 0.0 1.6 0.00 0.00 0.00 82 1017.3
20260902082525 13 0.0 1.6 0.00 0.00 0.00 82 1017.1
20260902082024 13 0.0 1.6 0.00 0.00 0.00 82 1017.0
20260902081504 13 0.0 1.6 0.00 0.00 0.00 82 1017.0
20260902081004 13 0.0 1.6 0.00 0.00 0.00 82 1016.9
20260902080524 13 0.0 1.6 0.00 0.00 0.00 81 1017.1
20260902080004 13 0.0 0.0 0.00 0.00 0.00 81 1017.0
20260902075504 13 0.0 1.6 0.00 0.00 0.00 81 1017.1
20260902075024 14 0.0 1.6 0.00 0.00 0.00 81 1017.1
20260902074504 14 0.0 1.6 0.00 0.00 0.00 81 1017.1
20260902074044 14 0.0 1.6 0.00 0.00 0.00 80 1017.0
20260902073504 14 0.0 1.6 0.00 0.00 0.00 80 1017.0
20260902073009 14 0.0 1.6 0.00 0.00 0.00 80 1017.0
20260902072504 14 0.0 1.6 0.00 0.00 0.00 80 1017.1
20260902072024 14 0.0 1.6 0.00 0.00 0.00 80 1017.1
20260902071504 14 0.0 1.6 0.00 0.00 0.00 80 1017.1
20260902071024 14 0.0 0.0 0.00 0.00 0.00 80 1017.2
20260902070505 15 0.0 1.6 0.00 0.00 0.00 79 1017.1
20260902070006 15 0.0 1.6 0.00 0.00 0.00 79 1017.0
20260902065544 15 0.0 1.6 0.00 0.00 0.00 79 1017.2
20260902065004 15 0.0 1.6 0.00 0.00 0.00 79 1017.2
20260902064503 15 0.0 1.6 0.00 0.00 0.00 79 1017.1
20260902064009 15 0.0 1.6 0.00 0.00 0.00 79 1017.0
20260902063504 15 0.0 1.6 0.00 0.00 0.00 78 1017.1
20260902063008 15 0.0 1.6 0.00 0.00 0.00 78 1017.0
20260902062504 15 0.0 1.6 0.00 0.00 0.00 78 1017.0
20260902062004 15 0.0 1.6 0.00 0.00 0.00 78 1017.0
20260902061523 15 0.0 1.6 0.00 0.00 0.00 78 1016.9
20260902061006 15 0.0 1.6 0.00 0.00 0.00 77 1016.9
20260902060503 15 0.0 1.6 0.00 0.00 0.00 77 1016.9
20260902060003 15 0.0 1.6 0.00 0.00 0.00 76 1016.7
20260902055503 16 0.0 1.6 0.00 0.00 0.00 76 1016.8
20260902055003 16 0.0 1.6 0.00 0.00 0.00 76 1016.8
20260902054504 16 0.0 1.6 0.00 0.00 0.00 76 1016.9
20260902054008 16 0.0 1.6 0.00 0.00 0.00 76 1016.9
20260902053503 16 0.0 1.6 0.00 0.00 0.00 75 1017.0
20260902053008 16 0.0 1.6 0.00 0.00 0.00 75 1017.1
20260902052503 16 0.0 1.6 0.00 0.00 0.00 75 1017.2
20260902052008 16 0.0 0.0 0.00 0.00 0.00 75 1017.3
20260902051503 16 0.0 1.6 0.00 0.00 0.00 75 1017.3
20260902051028 16 0.0 1.6 0.00 0.00 0.00 75 1017.5
20260902050528 16 0.0 3.2 0.00 0.00 0.00 74 1017.4
20260902050009 16 0.0 3.2 0.00 0.00 0.00 74 1017.4
20260902045509 16 0.0 1.6 0.00 0.00 0.00 74 1017.3
20260902045008 17 0.0 1.6 0.00 0.00 0.00 73 1017.2
20260902044503 17 0.0 1.6 0.00 0.00 0.00 74 1017.2
20260902044008 17 315 1.6 3.2 0.00 0.00 0.00 74 1017.3
20260902043504 17 0.0 3.2 0.00 0.00 0.00 73 1017.1
20260902043004 17 0.0 1.6 0.00 0.00 0.00 73 1017.2
20260902042508 17 315 1.6 6.4 0.00 0.00 0.00 73 1017.2
20260902042008 17 315 1.6 3.2 0.00 0.00 0.00 73 1017.2
20260902041508 17 315 1.6 4.8 0.00 0.00 0.00 73 1017.1
20260902041024 17 315 1.6 6.4 0.00 0.00 0.00 73 1017.0
20260902040503 17 315 1.6 11.3 0.00 0.00 0.00 73 1016.8
20260902040008 17 315 1.6 4.8 0.00 0.00 0.00 73 1016.9
20260902035508 17 248 1.6 6.4 0.00 0.00 0.00 72 1016.8
20260902035008 17 270 1.6 4.8 0.00 0.00 0.00 72 1016.7
20260902034503 17 293 1.6 4.8 0.00 0.00 0.00 72 1016.7
20260902034003 17 248 3.2 8.0 0.00 0.00 0.00 72 1016.7
20260902033508 17 315 1.6 4.8 0.00 0.00 0.00 72 1016.7
20260902033003 17 248 3.2 9.7 0.00 0.00 0.00 71 1016.6
20260902032503 17 315 3.2 8.0 0.00 0.00 0.00 71 1016.4
20260902032008 17 248 3.2 9.7 0.00 0.00 0.00 70 1016.5
20260902031508 17 248 1.6 6.4 0.00 0.00 0.00 70 1016.4
20260902031003 18 315 1.6 6.4 0.00 0.00 0.00 69 1016.4
20260902030508 18 248 3.2 9.7 0.00 0.00 0.00 69 1016.4
20260902030026 18 248 1.6 11.3 0.00 0.00 0.00 68 1016.3
20260902025508 18 270 3.2 6.4 0.00 0.00 0.00 68 1016.4
20260902025003 18 315 1.6 8.0 0.00 0.00 0.00 67 1016.3
20260902024523 18 270 1.6 9.7 0.00 0.00 0.00 66 1016.3
20260902024008 18 315 3.2 9.7 0.00 0.00 0.00 66 1016.3
20260902023508 18 248 3.2 8.0 0.00 0.00 0.00 65 1016.2
20260902023008 18 293 1.6 6.4 0.00 0.00 0.00 64 1016.1
20260902022508 19 248 3.2 9.7 0.00 0.00 0.00 63 1016.1
20260902022003 19 248 3.2 11.3 0.00 0.00 0.00 62 1016.1
20260902021508 19 293 3.2 9.7 0.00 0.00 0.00 61 1016.1
20260902021003 20 315 4.8 12.9 0.00 0.00 0.00 60 1016.1
20260902020508 20 225 3.2 8.0 0.00 0.00 0.00 59 1016.1
20260902020008 20 248 3.2 11.3 0.00 0.00 0.00 59 1016.0
20260902015523 20 270 3.2 8.0 0.00 0.00 0.00 58 1016.0
20260902015003 20 248 3.2 8.0 0.00 0.00 0.00 57 1016.0
20260902014528 21 315 3.2 12.9 0.00 0.00 0.00 56 1016.0
20260902014010 21 293 3.2 8.0 0.00 0.00 0.00 54 1016.0
20260902013525 21 225 1.6 6.4 0.00 0.00 0.00 54 1015.9
20260902013003 21 315 3.2 17.7 0.00 0.00 0.00 53 1016.1
20260902012530 21 293 3.2 9.7 0.00 0.00 0.00 53 1016.0
20260902012010 21 248 4.8 12.9 0.00 0.00 0.00 52 1015.9
20260902011510 22 315 3.2 9.7 0.00 0.00 0.00 52 1015.9
20260902011005 22 293 1.6 4.8 0.00 0.00 0.00 52 1015.8
20260902010510 22 315 1.6 8.0 0.00 0.00 0.00 52 1015.9
20260902010010 22 315 3.2 11.3 0.00 0.00 0.00 51 1015.8
20260902005509 22 315 3.2 8.0 0.00 0.00 0.00 52 1015.8
20260902005005 22 248 3.2 11.3 0.00 0.00 0.00 52 1016.0
20260902004509 22 315 3.2 9.7 0.00 0.00 0.00 51 1015.8
20260902004030 22 248 4.8 11.3 0.00 0.00 0.00 51 1015.9
20260902003510 22 248 3.2 11.3 0.00 0.00 0.00 51 1015.8
20260902003009 22 248 3.2 8.0 0.00 0.00 0.00 51 1015.8
20260902002525 22 315 3.2 11.3 0.00 0.00 0.00 50 1015.9
20260902002010 22 315 3.2 11.3 0.00 0.00 0.00 50 1015.8
20260902001510 23 315 3.2 11.3 0.00 0.00 0.00 49 1015.7
20260902001009 23 315 3.2 8.0 0.00 0.00 0.00 49 1015.8
20260902000509 23 338 3.2 11.3 0.00 0.00 0.00 49 1015.9
20260902000030 23 315 3.2 8.0 0.00 0.00 0.00 49 1015.8
20260901235505 22 293 3.2 9.7 0.00 0.00 0.00 49 1015.9
20260901235004 23 315 4.8 9.7 0.00 0.00 0.00 48 1015.8
20260901234510 23 315 4.8 14.5 0.00 0.00 0.00 47 1015.8
20260901234004 23 315 3.2 12.9 0.00 0.00 0.00 47 1015.9
20260901233509 23 315 4.8 11.3 0.00 0.00 0.00 46 1015.9
20260901233009 23 315 3.2 8.0 0.00 0.00 0.00 45 1015.8
20260901232510 23 315 3.2 8.0 0.00 0.00 0.00 46 1015.7
20260901232007 23 315 3.2 12.9 0.00 0.00 0.00 45 1015.7
20260901231529 23 315 3.2 9.7 0.00 0.00 0.00 46 1015.8
20260901231005 23 0 4.8 12.9 0.00 0.00 0.00 46 1015.8
20260901230504 24 315 3.2 11.3 0.00 0.00 0.00 45 1015.8
20260901230029 24 315 3.2 8.0 0.00 0.00 0.00 45 1015.7
20260901225509 24 315 3.2 6.4 0.00 0.00 0.00 45 1015.7
20260901225010 23 315 3.2 8.0 0.00 0.00 0.00 45 1015.7
20260901224509 23 315 3.2 11.3 0.00 0.00 0.00 46 1015.6
20260901224004 23 315 4.8 11.3 0.00 0.00 0.00 46 1015.6
20260901223509 23 315 3.2 8.0 0.00 0.00 0.00 47 1015.6
20260901223005 23 315 3.2 9.7 0.00 0.00 0.00 48 1015.5
20260901222505 22 338 3.2 11.3 0.00 0.00 0.00 51 1015.7
20260901222004 21 45 3.2 9.7 0.00 0.00 0.00 54 1015.6
20260901221509 21 45 4.8 12.9 0.00 0.00 0.00 56 1015.7
20260901221024 21 45 4.8 11.3 0.00 0.00 0.00 57 1015.7
20260901220504 21 45 4.8 9.7 0.00 0.00 0.00 57 1015.9
20260901220009 21 45 4.8 11.3 0.00 0.00 0.00 56 1015.9
20260901215510 21 23 6.4 12.9 0.00 0.00 0.00 56 1016.0
20260901215029 21 23 4.8 9.7 0.00 0.00 0.00 56 1015.9
20260901214510 21 45 4.8 11.3 0.00 0.00 0.00 56 1016.0
20260901214025 21 23 4.8 11.3 0.00 0.00 0.00 55 1016.0
20260901213524 21 23 4.8 12.9 0.00 0.00 0.00 55 1016.0
20260901213004 21 45 4.8 9.7 0.00 0.00 0.00 55 1016.0
20260901212509 21 45 3.2 9.7 0.00 0.00 0.00 54 1016.1
20260901212004 21 45 3.2 9.7 0.00 0.00 0.00 54 1016.2
20260901211504 21 23 3.2 8.0 0.00 0.00 0.00 53 1016.2
20260901211029 22 45 3.2 9.7 0.00 0.00 0.00 54 1016.3
20260901210544 22 45 3.2 9.7 0.00 0.00 0.00 53 1016.3
20260901210009 22 45 3.2 6.4 0.00 0.00 0.00 53 1016.0
20260901205505 22 45 3.2 8.0 0.00 0.00 0.00 52 1016.2
20260901205004 23 45 3.2 11.3 0.00 0.00 0.00 52 1016.1